This is the latest recevied weather packets stored in our database for station/object W9LRT-WX. If no packets are shown the sender has not sent any weather packets the latest 10 day(s).
| Time | Temp. | Humidity | Pressure | Rain* | Wind** | Luminosity | Snow |
|---|---|---|---|---|---|---|---|
| 1777939556 | 22.22° C | 59% | 999.1 hPa | 0 mm | - | 12 W/m² | - |
| 1777938655 | 22.22° C | 59% | 999.1 hPa | 0 mm | - | 25 W/m² | - |
| 1777937755 | 22.22° C | 59% | 998.9 hPa | 0 mm | - | 42 W/m² | - |
| 1777936855 | 21.67° C | 61% | 998.8 hPa | 0 mm | - | 47 W/m² | - |
| 1777935955 | 22.22° C | 60% | 998.9 hPa | 0 mm | - | 33 W/m² | - |
| 1777935056 | 22.78° C | 59% | 999.2 hPa | 0 mm | - | 251 W/m² | - |
| 1777934154 | 22.78° C | 58% | 999.3 hPa | 0 mm | - | 329 W/m² | - |
| 1777933255 | 23.33° C | 53% | 999.2 hPa | 0 mm | - | 352 W/m² | - |
| 1777932355 | 23.33° C | 51% | 999.4 hPa | 0 mm | - | 385 W/m² | - |
| 1777931456 | 23.89° C | 51% | 999.4 hPa | 0 mm | - | 471 W/m² | - |
| 1777930556 | 24.44° C | 48% | 999.3 hPa | 0 mm | - | 499 W/m² | - |
| 1777929653 | 24.44° C | 48% | 999.4 hPa | 0 mm | - | 601 W/m² | - |
| 1777928753 | 25° C | 48% | 999.3 hPa | 0 mm | - | 605 W/m² | - |
| 1777927852 | 25° C | 47% | 999.3 hPa | 0 mm | - | 656 W/m² | - |
| 1777926953 | 25° C | 48% | 999.1 hPa | 0 mm | - | 663 W/m² | - |
| 1777926052 | 25° C | 46% | 999.1 hPa | 0 mm | - | 810 W/m² | - |
| 1777925153 | 25° C | 47% | 999.2 hPa | 0 mm | - | 290 W/m² | - |
| 1777924253 | 24.44° C | 48% | 999.4 hPa | 0 mm | - | 276 W/m² | - |
| 1777923354 | 24.44° C | 48% | 999.6 hPa | 0 mm | - | 234 W/m² | - |
| 1777922452 | 24.44° C | 51% | 999.6 hPa | 0 mm | - | 993 W/m² | - |
| 1777921553 | 23.89° C | 53% | 999.9 hPa | 0 mm | - | 967 W/m² | - |
| 1777920650 | 23.89° C | 53% | 1000.1 hPa | 0 mm | - | 227 W/m² | - |
| 1777919750 | 23.33° C | 56% | 1000.4 hPa | 0 mm | - | 330 W/m² | - |
| 1777918848 | 23.33° C | 55% | 1000.7 hPa | 0 mm | - | 905 W/m² | - |
| 1777917950 | 22.78° C | 59% | 1000.9 hPa | 0 mm | - | 935 W/m² | - |
* Rain latest hour (hover to see other rain measurements)
** Current wind speed in m/s (hover to see current wind gust speed)